Weather History for Cody, WY

Change the Weather History Date:

Monday, November 12, 2012

  Actual Average Record
Temperature  
Mean Temperature 24 °F -  
Max Temperature 37 °F 47 °F 71 °F (1981)
Min Temperature 10 °F 25 °F -11 °F (1940)
Degree Days  
Heating Degree Days 42    
Moisture  
Dew Point 12 °F    
Average Humidity 59    
Maximum Humidity 92    
Minimum Humidity 38    
Precipitation  
Precipitation 0.00 in - - ()
Sea Level Pressure  
Sea Level Pressure 30.13 in    
Wind  
Wind Speed 12 mph (NW)    
Max Wind Speed 24 mph    
Max Gust Speed 38 mph    
Visibility 10 miles    
Events      
Averages and records for this station are not official NWS values.
T = Trace of Precipitation, MM = Missing Value Source: NWS Daily Summary

Daily Weather History Graph

Daily Weather History Graph

Search for Another Location

Airport:

Trip Planner

Search our weather history database for the weather conditions in past years. The results will help you decide how hot, cold, wet, or windy it might be!

Date:

Astronomy

Nov. 12, 2012 Rise Set
Actual Time 7:09 AM MST 4:50 PM MST
Civil Twilight 6:37 AM MST 5:22 PM MST
Nautical Twilight 6:02 AM MST 5:57 PM MST
Astronomical Twilight 5:28 AM MST 6:31 PM MST
Moon 5:36 AM MST (11/12) 3:59 PM MST (11/12)
Length of Visible Light 10h 44m
Length of Day
9h 41m
Waning Crescent, 2% of the Moon is Illuminated
Nov 12
Waning Crescent
Nov 13
New
Nov 20
First Quarter
Nov 28
Full
Dec 6
Last Quarter

Hourly Weather History & Observations

Time (MST) Temp. Windchill Dew Point Humidity Pressure Visibility Wind Dir Wind Speed Gust Speed Precip Events Conditions
12:55 AM 28.4 °F 16.2 °F 8.6 °F 43% 30.10 in 10.0 mi West 17.3 mph 29.9 mph N/A   Clear
1:15 AM 28.4 °F 15.8 °F 10.4 °F 47% 30.09 in 10.0 mi West 18.4 mph 31.1 mph N/A   Clear
1:35 AM 28.4 °F 17.0 °F 10.4 °F 47% 30.09 in 10.0 mi West 15.0 mph 28.8 mph N/A   Clear
1:55 AM 28.4 °F 18.5 °F 8.6 °F 43% 30.10 in 10.0 mi WNW 11.5 mph 28.8 mph N/A   Clear
2:15 AM 26.6 °F 16.8 °F 8.6 °F 47% 30.10 in 10.0 mi NW 10.4 mph 21.9 mph N/A   Clear
2:35 AM 28.4 °F 18.5 °F 10.4 °F 47% 30.11 in 10.0 mi West 11.5 mph 26.5 mph N/A   Clear
2:55 AM 24.8 °F 15.3 °F 6.8 °F 46% 30.11 in 10.0 mi NW 9.2 mph 24.2 mph N/A   Clear
3:15 AM 28.4 °F 19.1 °F 10.4 °F 47% 30.11 in 10.0 mi NNW 10.4 mph 18.4 mph N/A   Clear
3:35 AM 28.4 °F 23.3 °F 6.8 °F 40% 30.11 in 10.0 mi WSW 4.6 mph - N/A   Clear
3:55 AM 28.4 °F 20.4 °F 6.8 °F 40% 30.11 in 10.0 mi NNW 8.1 mph 27.6 mph N/A   Clear
4:15 AM 28.4 °F 17.5 °F 8.6 °F 43% 30.11 in 10.0 mi West 13.8 mph 34.5 mph N/A   Clear
4:35 AM 26.6 °F 13.8 °F 6.8 °F 43% 30.12 in 10.0 mi West 17.3 mph 24.2 mph N/A   Partly Cloudy
4:55 AM 28.4 °F 17.0 °F 8.6 °F 43% 30.12 in 10.0 mi West 15.0 mph 32.2 mph N/A   Mostly Cloudy
5:16 AM 28.4 °F 15.4 °F 8.6 °F 43% 30.12 in 10.0 mi West 19.6 mph 33.4 mph N/A   Mostly Cloudy
5:35 AM 30.2 °F 19.3 °F 8.6 °F 40% 30.13 in 10.0 mi West 15.0 mph 27.6 mph N/A   Partly Cloudy
5:55 AM 30.2 °F 18.1 °F 8.6 °F 40% 30.13 in 10.0 mi West 18.4 mph 33.4 mph N/A   Clear
6:15 AM 30.2 °F 17.1 °F 8.6 °F 40% 30.11 in 10.0 mi WSW 21.9 mph 33.4 mph N/A   Clear
6:55 AM 32.0 °F 19.8 °F 10.4 °F 41% 30.12 in 10.0 mi West 20.7 mph 38.0 mph N/A   Clear
7:15 AM 32.0 °F 19.8 °F 10.4 °F 41% 30.13 in 10.0 mi WSW 20.7 mph 33.4 mph N/A   Clear
7:55 AM 28.4 °F 18.5 °F 10.4 °F 47% 30.15 in 10.0 mi West 11.5 mph 25.3 mph N/A   Clear
8:15 AM 32.0 °F 22.5 °F 12.2 °F 44% 30.14 in 10.0 mi West 12.7 mph 24.2 mph N/A   Clear
8:55 AM 33.8 °F 21.3 °F 14.0 °F 44% 30.14 in 10.0 mi WSW 24.2 mph 33.4 mph N/A   Clear
9:15 AM 35.6 °F 25.5 °F 12.2 °F 38% 30.15 in 10.0 mi West 17.3 mph 33.4 mph N/A   Clear
9:35 AM 35.6 °F 26.2 °F 14.0 °F 41% 30.15 in 10.0 mi West 15.0 mph 24.2 mph N/A   Clear
9:55 AM 26.6 °F 20.0 °F 12.2 °F 55% 30.16 in 10.0 mi North 5.8 mph 17.3 mph N/A   Clear
10:15 AM 15.8 °F 2.7 °F 6.8 °F 68% 30.17 in 10.0 mi NE 11.5 mph - N/A   Clear
10:35 AM 10.4 °F -1.5 °F 6.8 °F 85% 30.16 in 10.0 mi NNE 8.1 mph - N/A   Partly Cloudy
10:55 AM 12.2 °F 1.7 °F 8.6 °F 85% 30.17 in 10.0 mi NNE 6.9 mph - N/A   Partly Cloudy
11:15 AM 12.2 °F -0.2 °F 8.6 °F 85% 30.17 in 10.0 mi NNE 9.2 mph - N/A   Clear
11:35 AM 12.2 °F 4.3 °F 10.4 °F 92% 30.16 in 10.0 mi North 4.6 mph - N/A   Partly Cloudy
11:55 AM 14.0 °F 5.1 °F 10.4 °F 86% 30.16 in 10.0 mi NNE 5.8 mph - N/A   Mostly Cloudy
12:15 PM 15.8 °F 8.6 °F 12.2 °F 86% 30.15 in 10.0 mi NE 4.6 mph - N/A   Scattered Clouds
12:35 PM 15.8 °F 4.2 °F 10.4 °F 79% 30.15 in 10.0 mi NNE 9.2 mph - N/A   Clear
12:55 PM 15.8 °F 4.2 °F 10.4 °F 79% 30.14 in 10.0 mi NNE 9.2 mph - N/A   Clear
1:15 PM 15.8 °F 6.1 °F 12.2 °F 86% 30.14 in 10.0 mi NNE 6.9 mph - N/A   Clear
1:35 PM 19.4 °F 10.4 °F 14.0 °F 80% 30.14 in 10.0 mi NE 6.9 mph - N/A   Clear
1:55 PM 19.4 °F 9.5 °F 14.0 °F 80% 30.14 in 10.0 mi NNE 8.1 mph - N/A   Clear
2:15 PM 19.4 °F 11.5 °F 15.8 °F 86% 30.14 in 10.0 mi North 5.8 mph - N/A   Clear
2:35 PM 23.0 °F - 17.6 °F 80% 30.14 in 10.0 mi Calm Calm - N/A   Clear
2:56 PM 24.8 °F 20.5 °F 17.6 °F 74% 30.15 in 10.0 mi NNW 3.5 mph 17.3 mph N/A   Clear
3:35 PM 30.2 °F 21.9 °F 19.4 °F 64% 30.13 in 10.0 mi North 9.2 mph 18.4 mph N/A   Clear
3:55 PM 28.4 °F 21.2 °F 19.4 °F 69% 30.14 in 10.0 mi NNW 6.9 mph - N/A   Clear
4:15 PM 26.6 °F - 19.4 °F 74% 30.14 in 10.0 mi Calm Calm - N/A   Clear
4:35 PM 26.6 °F 22.6 °F 19.4 °F 74% 30.13 in 10.0 mi NE 3.5 mph - N/A   Clear
4:55 PM 21.2 °F 10.9 °F 17.6 °F 86% 30.13 in 10.0 mi NE 9.2 mph - N/A   Clear
5:15 PM 19.4 °F 6.0 °F 14.0 °F 80% 30.14 in 10.0 mi NE 13.8 mph - N/A   Clear
5:35 PM 19.4 °F 12.8 °F 15.8 °F 86% 30.14 in 10.0 mi NNE 4.6 mph - N/A   Clear
5:55 PM 19.4 °F 12.8 °F 12.2 °F 74% 30.14 in 10.0 mi NNE 4.6 mph - N/A   Clear
6:15 PM 17.6 °F 10.7 °F 12.2 °F 79% 30.13 in 10.0 mi North 4.6 mph - N/A   Clear
6:35 PM 19.4 °F 12.8 °F 14.0 °F 80% 30.13 in 10.0 mi NNE 4.6 mph - N/A   Clear
6:55 PM 17.6 °F 9.3 °F 14.0 °F 86% 30.13 in 10.0 mi NNE 5.8 mph - N/A   Mostly Cloudy
7:35 PM 30.2 °F 20.8 °F 17.6 °F 60% 30.13 in 10.0 mi West 11.5 mph 17.3 mph N/A   Clear
7:55 PM 37.4 °F 28.5 °F 17.6 °F 45% 30.12 in 10.0 mi West 15.0 mph 33.4 mph N/A   Clear
8:15 PM 37.4 °F 28.5 °F 15.8 °F 41% 30.12 in 10.0 mi West 15.0 mph 28.8 mph N/A   Clear
8:35 PM 37.4 °F 28.2 °F 14.0 °F 38% 30.12 in 10.0 mi West 16.1 mph 29.9 mph N/A   Clear
9:15 PM 37.4 °F 28.2 °F 14.0 °F 38% 30.11 in 10.0 mi West 16.1 mph 26.5 mph N/A   Scattered Clouds
9:35 PM 35.6 °F 28.0 °F 15.8 °F 44% 30.11 in 10.0 mi NNW 10.4 mph 18.4 mph N/A   Scattered Clouds
9:55 PM 33.8 °F 23.5 °F 15.8 °F 48% 30.12 in 10.0 mi WNW 16.1 mph 25.3 mph N/A   Mostly Cloudy
10:15 PM 37.4 °F 27.8 °F 15.8 °F 41% 30.12 in 10.0 mi WSW 17.3 mph 27.6 mph N/A   Mostly Cloudy
10:35 PM 30.2 °F 20.2 °F 14.0 °F 51% 30.13 in 10.0 mi WNW 12.7 mph 24.2 mph N/A   Overcast
10:55 PM 30.2 °F 21.9 °F 15.8 °F 55% 30.13 in 10.0 mi NW 9.2 mph 23.0 mph N/A   Overcast
11:15 PM 30.2 °F 24.3 °F 15.8 °F 55% 30.13 in 10.0 mi WNW 5.8 mph - N/A   Overcast
11:35 PM 24.8 °F 19.1 °F 12.2 °F 59% 30.14 in 10.0 mi North 4.6 mph - N/A   Overcast
11:55 PM 30.2 °F 25.4 °F 17.6 °F 60% 30.15 in 10.0 mi WNW 4.6 mph - N/A   Overcast